sat.trackr.live / text

‹ back to catalog

STARLINK-31989

NORAD 59959 · 2024-107Q

PAYLOAD ACTIVE UNKNOWN

§ Identity

Operator
Country
US
Launch date
2024-06-05
Launch site
AFETR
Launch vehicle
Mass (kg)
RCS (m²)

Purposes: comms

External: N2YO · Heavens-Above · Gunter

§ Orbital elements

Epoch: 2026-05-25T01:53:01.861728Z

Period
94.11 min
Inclination
53.1606°
Eccentricity
0.0001208
Mean motion
15.30199748 rev/d
Perigee alt
474.4 km
Apogee alt
476.0 km
Semi-major
6,853.4 km
B*
8.1987e-5
RAAN
70.5913°
Arg perigee
82.9519°
Mean anomaly
277.1619°
Rev number
11,149

§ Raw data

STARLINK-319891 59959U 24107Q   26145.07849377  .00002070  00000+0  81987-4 0  99992 59959  53.1606  70.5913 0001208  82.9519 277.1619 15.30199748111496

JSON: /api/v1/satellites/59959 · /tle

For live sub-satellite position, see the globe view (requires WebGL).

§ Visibility from observer

Set your observer location to see the next 7 days of passes ≥ 10°. The values pass through the URL so the page stays shareable.

No JS? Fill the form by hand. The geolocation button needs JavaScript.